Temperature
21 22 21 22 22 22 22 22 21 21 21 21 21 21 21 20 20 20 20 20 19 19 18 18 17 17 17 17 17 16 16 16 16 16 16 15 15 15 15 15 15 15 15 15
22 21 22 22 21 21 22 21 21 21 21 21 21 21 21 20 20 20 20 20 20 19 18 18 17 17 17 17 17 16 16 16 16 16 15 15 15 15 15 15 15 15 15 15
22 22 21 21 21 21 21 22 21 21 21 21 21 21 21 21 20 20 20 20 20 19 19 18 18 17 17 17 17 17 16 16 16 16 15 15 15 15 15 15 15 15 15 15
21 21 21 21 21 21 21 22 21 21 21 21 21 21 22 22 21 21 20 20 19 19 19 18 18 18 17 17 17 17 16 16 16 16 15 15 15 15 15 15 15 15 15 15
21 21 21 21 21 21 21 21 21 21 21 21 22 21 22 22 21 21 21 20 19 19 19 18 18 18 17 17 17 17 16 16 16 16 16 15 15 15 15 15 15 15 15 15
21 21 21 21 21 21 21 21 21 21 22 21 22 22 22 22 22 22 22 20 20 19 18 18 18 17 17 17 17 17 17 16 16 16 16 15 15 15 15 15 15 15 15 15
21 21 21 21 21 21 21 21 21 21 21 21 22 22 22 23 23 23 22 21 20 19 19 18 18 17 17 17 17 17 17 16 16 16 16 15 15 15 15 15 15 15 15 15
21 21 21 21 21 21 21 22 21 20 21 22 21 21 23 23 22 22 21 20 20 19 19 18 18 18 17 17 17 17 17 16 16 16 16 15 15 15 15 15 15 15 15 15
21 21 21 21 21 22 21 21 21 21 21 21 22 22 23 22 22 22 21 20 20 19 19 18 18 17 17 17 17 17 17 16 16 16 16 15 15 15 15 15 15 15 15 15
22 21 21 21 21 21 21 21 21 21 20 21 22 22 22 22 22 22 21 21 20 19 19 18 18 17 17 17 17 17 17 16 16 16 16 16 15 15 15 15 15 15 15 15
22 22 21 21 21 21 21 21 21 21 21 21 21 22 23 23 22 22 22 21 20 19 18 18 18 17 17 17 17 17 17 16 16 16 16 16 15 15 15 15 15 15 15 15
22 22 21 21 22 21 22 22 21 21 21 21 21 22 23 23 22 22 21 20 19 19 18 18 17 17 17 17 17 16 16 16 16 16 16 15 15 15 15 15 15 15 15 15
21 21 21 21 21 21 21 21 21 22 22 21 21 22 23 22 22 21 21 20 19 18 18 17 17 17 17 17 17 16 16 16 16 16 16 15 15 15 15 15 15 15 15 14
21 22 21 21 21 21 21 21 21 21 21 22 22 22 23 22 22 21 20 20 19 18 17 17 17 17 17 17 16 16 16 16 16 16 16 15 15 15 15 15 15 15 14 14
21 21 22 22 22 21 21 21 21 21 22 22 22 22 23 22 22 21 20 19 18 18 17 17 16 16 16 16 16 16 16 16 16 16 15 15 15 15 15 15 15 15 15 14
21 21 21 21 21 21 21 22 22 21 22 22 22 22 23 22 21 20 20 19 18 17 17 17 16 16 16 17 16 16 16 16 16 16 15 15 15 15 15 15 15 15 14 14
21 21 21 21 21 21 21 22 22 22 22 22 22 22 22 22 21 20 19 18 18 17 17 17 17 17 17 17 17 16 16 16 16 16 16 15 15 15 15 15 15 15 14 14
21 21 21 21 21 20 22 22 22 21 22 22 22 22 21 21 20 19 18 18 18 17 17 17 17 17 17 17 17 16 16 16 16 16 15 15 15 15 15 15 14 14 14 14
21 20 20 20 20 20 21 21 21 21 21 22 22 21 20 20 19 19 18 17 17 17 17 17 17 16 16 16 16 16 16 16 16 16 15 15 15 15 15 15 14 14 14 14
19 20 20 20 20 20 21 21 20 21 21 21 21 21 20 20 21 20 17 17 17 17 17 16 16 16 16 16 16 16 16 16 16 16 15 15 15 15 15 15 14 14 14 14
19 19 19 20 20 21 21 20 20 21 21 20 20 20 20 20 20 18 17 16 16 16 16 16 16 16 16 16 16 16 16 16 16 15 15 15 15 15 15 14 14 14 14 14
20 20 19 20 19 20 20 20 21 21 20 19 19 19 19 18 17 16 16 16 16 16 16 16 16 16 16 16 16 16 15 15 15 15 15 15 15 14 14 14 14 14 14 13
19 20 20 20 20 19 18 19 19 19 19 19 18 18 17 17 16 16 16 16 16 16 16 16 16 16 16 16 16 15 15 15 15 15 14 14 14 14 14 14 14 13 13 13
19 18 19 19 19 19 18 18 17 17 18 17 17 17 17 16 16 16 15 15 15 15 16 16 15 15 15 15 15 15 15 15 15 14 14 14 14 14 13 13 13 13 13 13
18 18 19 19 19 18 17 17 17 17 17 17 16 16 16 16 16 15 15 15 15 15 15 15 15 15 15 15 15 15 15 14 14 14 14 13 13 13 13 13 13 13 13 12
18 18 19 19 19 19 18 17 17 17 16 16 16 16 15 15 15 15 15 15 15 15 15 15 15 14 14 14 14 14 14 14 14 14 13 13 13 13 13 12 12 12 12 12
Wind_Speed
3 4 4 4 4 3 5 5 5 3 3 4 5 5 6 6 7 8 8 8 9 9 8 9 9 9 8 8 8 8 7 6 5 4 3 3 3 2 3 3 4 3 3 3
5 4 3 4 5 5 6 6 5 4 4 4 5 5 5 7 8 9 9 9 9 9 9 9 10 10 10 9 8 8 8 7 6 4 3 3 3 2 3 3 4 4 3 3
4 3 5 6 6 6 5 5 5 4 4 4 3 5 7 7 8 8 8 8 9 10 11 11 11 11 10 10 9 8 8 8 7 6 4 4 3 3 3 3 3 4 4 4
3 3 6 6 5 5 4 3 4 5 5 3 4 3 6 9 10 10 10 9 9 10 10 10 11 12 11 10 9 8 8 8 8 7 5 5 3 3 2 2 3 3 4 4
4 4 5 5 4 4 2 3 4 4 4 3 5 4 3 8 9 11 11 10 10 10 10 11 11 11 10 10 9 8 8 8 7 7 6 5 4 3 3 3 3 3 3 4
3 3 3 3 3 4 5 6 4 4 4 4 4 5 3 6 8 9 10 10 11 10 11 10 10 10 10 9 9 8 9 8 7 7 7 6 5 4 4 3 3 3 3 3
5 5 3 3 5 6 6 5 3 4 4 2 3 4 2 3 5 7 8 8 10 11 11 11 11 11 11 11 10 10 10 9 8 8 7 7 6 5 5 4 3 2 2 2
5 6 5 5 4 5 6 6 3 2 2 2 3 3 1 2 3 5 6 7 8 10 11 11 12 12 12 12 11 10 11 10 9 8 8 7 7 5 4 4 3 3 2 2
4 4 5 4 3 4 5 4 3 3 2 2 2 2 2 3 4 5 6 7 9 9 11 11 11 11 12 12 12 11 11 10 10 9 8 7 7 6 5 5 4 3 3 2
3 4 5 5 4 3 3 3 3 4 2 2 2 2 2 4 4 5 6 7 8 9 10 10 10 11 11 11 11 11 11 11 11 10 8 7 7 6 5 5 4 4 3 3
5 4 6 7 7 7 6 5 4 4 3 2 1 1 1 1 2 2 3 4 7 8 9 10 10 10 11 11 11 11 11 11 11 10 9 8 7 7 6 5 4 4 4 4
5 4 5 5 3 4 7 6 6 4 3 3 2 1 3 1 1 2 2 3 5 7 8 9 10 10 10 11 11 11 11 12 11 10 9 8 8 7 7 6 5 5 4 4
6 5 5 5 5 5 6 7 8 6 4 4 3 1 3 2 1 2 2 3 5 7 8 8 9 10 10 11 11 11 11 11 11 11 10 9 9 8 7 6 5 5 5 5
5 5 5 4 2 5 7 8 9 9 6 5 5 4 2 2 2 2 2 3 5 7 8 8 9 9 10 11 11 11 11 11 11 11 11 10 9 8 7 6 6 5 5 5
5 5 6 5 3 4 6 8 10 11 10 8 7 7 6 4 3 2 3 4 5 6 8 8 9 9 10 11 11 11 11 11 12 12 11 10 9 8 7 7 6 5 5 5
5 6 6 7 5 6 6 8 10 11 11 11 10 9 5 3 2 2 3 5 6 7 8 8 9 10 11 11 11 12 11 11 12 12 12 10 9 8 7 7 7 6 6 5
5 5 6 6 5 6 8 8 8 8 9 9 10 7 3 2 2 3 3 5 6 7 7 8 9 10 10 11 11 11 12 11 12 12 11 11 10 9 8 8 7 7 7 6
6 7 5 5 5 7 2 1 5 7 8 8 8 6 4 3 3 2 3 5 6 7 7 8 8 8 9 10 10 10 11 12 12 12 11 11 10 10 9 8 8 8 7 6
7 6 5 5 6 6 4 3 4 5 6 5 7 5 4 3 3 2 2 4 5 6 6 7 7 7 8 9 10 11 11 11 11 11 11 11 11 10 9 9 8 7 7 6
6 7 6 6 7 6 2 2 2 4 4 2 4 4 4 5 4 2 1 3 4 4 4 5 6 7 7 8 10 11 11 11 11 11 11 10 10 10 10 9 8 7 7 6
8 7 10 9 8 5 1 1 4 5 1 2 2 2 4 4 2 1 1 2 3 3 4 5 6 6 7 8 10 10 10 11 10 10 10 10 10 9 9 8 7 7 7 7
8 7 9 8 8 5 2 4 4 1 2 1 1 2 3 3 2 2 2 3 3 4 4 5 6 6 6 8 9 9 8 8 8 8 9 9 9 8 7 8 7 7 7 7
7 6 4 5 4 1 2 3 2 1 1 0 1 2 3 3 3 3 3 3 4 4 4 4 5 6 6 7 7 8 7 7 8 9 9 8 8 7 7 8 8 7 7 6
5 4 5 5 5 4 3 3 2 1 1 0 2 3 4 4 4 4 4 4 4 4 4 4 6 6 6 6 6 6 7 8 8 9 9 8 8 8 7 6 6 6 6 6
5 6 6 6 5 3 4 4 2 1 1 2 3 3 4 4 5 4 4 4 4 4 5 5 6 6 6 6 6 6 7 8 8 9 9 8 7 7 7 6 5 6 5 5
6 7 7 6 5 5 3 2 2 2 2 3 4 4 4 4 5 5 5 4 5 5 6 6 6 6 6 6 6 6 7 8 8 8 8 7 6 6 6 6 5 3 2 4
Wind_Direction
169 179 170 170 184 178 173 176 169 162 156 187 199 199 186 182 196 196 191 189 187 186 178 175 176 175 173 172 169 163 164 157 151 147 152 144 128 107 86 72 64 60 57 60
171 175 163 157 162 169 172 174 166 151 156 199 207 221 212 199 208 208 202 197 191 187 180 178 181 179 180 176 175 171 171 168 164 158 150 139 126 105 82 75 68 54 61 59
176 140 158 168 169 178 184 190 179 165 157 181 215 221 204 201 208 209 211 208 200 196 191 184 186 184 182 181 178 178 176 171 169 162 151 144 133 136 122 101 78 55 58 64
170 155 181 187 189 199 184 183 189 191 199 190 220 233 201 197 203 208 207 206 203 197 197 188 188 187 187 184 181 181 178 172 170 169 169 164 160 140 115 101 93 83 66 66
160 174 188 194 194 210 157 155 189 213 223 223 217 243 196 186 206 208 206 205 205 198 196 191 189 188 186 180 180 179 175 173 172 173 168 173 161 137 122 114 108 94 78 69
150 179 214 198 180 190 158 160 170 213 229 228 212 231 210 188 204 201 198 202 202 199 196 191 184 180 175 171 173 174 173 170 171 176 174 173 161 154 146 137 121 111 98 82
169 171 176 186 174 174 198 202 200 203 209 203 162 233 230 166 197 204 198 199 198 196 193 188 182 179 174 172 172 174 175 173 175 178 177 173 170 168 165 156 136 126 111 96
189 177 181 196 210 197 206 230 240 242 222 164 188 228 156 137 198 202 201 198 194 195 193 189 185 183 179 176 174 177 178 177 176 180 178 175 170 171 159 157 148 136 116 100
200 171 164 192 214 216 201 216 277 287 265 241 201 201 184 167 175 179 182 187 193 196 193 190 186 185 183 180 179 179 180 179 179 180 178 175 170 168 162 163 152 136 128 113
211 186 169 169 184 198 227 197 218 236 237 222 210 215 190 165 160 160 173 187 190 187 187 188 187 186 185 183 180 179 182 181 181 181 178 172 172 169 169 165 156 151 144 130
213 202 170 183 206 199 187 197 222 234 264 272 250 95 72 166 185 183 174 183 188 186 186 185 185 185 182 181 179 179 181 181 180 181 178 174 174 173 173 167 163 162 154 149
208 222 195 189 186 228 218 219 222 231 228 251 274 70 96 152 179 195 197 191 187 186 184 182 179 177 179 180 181 182 181 180 181 181 178 177 171 174 177 172 168 165 159 154
190 218 205 182 182 194 211 217 226 241 246 243 246 164 109 98 126 191 207 194 181 179 178 176 175 178 180 181 182 183 182 181 179 179 178 179 176 176 177 172 166 167 164 160
212 227 233 228 218 202 209 211 219 227 236 243 245 267 271 307 301 247 214 189 175 179 179 179 180 182 181 182 183 183 181 179 178 176 180 183 181 177 177 172 169 172 168 164
220 236 230 246 253 232 229 223 218 228 241 252 262 271 283 294 279 244 200 184 178 181 183 185 186 184 182 183 184 182 182 180 179 178 182 184 181 178 176 170 171 169 164 165
221 235 232 233 224 230 245 240 229 232 239 244 257 269 277 276 241 216 198 189 191 191 191 190 190 187 186 185 185 182 182 183 182 182 182 178 178 175 175 173 172 166 163 161
211 229 234 238 227 237 247 237 229 228 232 239 249 255 251 245 234 229 216 203 201 199 195 195 193 192 193 191 186 184 183 182 185 184 179 177 176 175 177 173 169 166 166 161
218 223 235 243 231 242 241 168 228 237 245 242 243 246 241 249 247 242 231 218 211 204 200 198 197 193 193 191 186 182 179 182 185 184 180 177 177 177 174 173 171 173 172 164
226 218 224 234 240 253 230 212 211 227 253 243 228 231 231 225 224 225 219 226 216 208 205 201 198 189 187 186 183 179 180 182 183 184 184 180 178 176 175 175 175 174 172 170
205 218 229 230 240 242 214 145 216 236 241 193 214 227 219 208 226 222 185 208 212 203 196 189 182 176 176 179 178 179 181 183 186 186 184 180 177 177 180 180 178 172 172 172
192 207 223 234 241 246 261 146 189 219 201 119 191 203 196 205 231 100 133 167 180 178 172 166 167 170 172 172 174 180 183 188 186 180 178 176 176 178 178 175 173 172 171 171
209 208 214 221 230 229 147 174 208 312 32 129 170 182 182 182 138 121 123 132 143 143 146 154 157 158 161 168 174 177 182 181 171 169 171 172 173 171 169 167 169 172 170 173
216 221 218 222 234 347 170 222 291 332 333 334 167 164 162 155 149 144 137 131 131 132 136 143 146 145 150 162 172 174 171 165 164 165 168 168 166 166 169 168 168 170 175 181
205 209 214 222 229 237 239 234 244 264 297 346 158 155 154 149 140 137 134 130 127 125 129 134 137 141 149 157 165 167 160 161 162 164 165 165 165 164 167 169 172 175 181 186
209 196 212 224 221 222 226 227 225 221 186 148 144 147 151 143 135 133 132 127 125 125 128 134 138 144 151 155 157 157 157 160 161 161 160 162 163 161 166 167 172 181 180 183
204 208 216 224 214 218 212 204 190 187 177 158 145 137 135 139 133 129 125 125 129 132 135 136 136 144 152 155 156 158 161 162 163 160 160 160 159 158 161 163 157 105 112 116
Height
1518 1517 1518 1517 1517 1517 1518 1521 1524 1525 1526 1528 1529 1530 1531 1535 1537 1538 1539 1541 1544 1546 1549 1551 1553 1555 1557 1559 1560 1561 1563 1564 1565 1567 1568 1569 1570 1570 1571 1570 1570 1570 1570 1570
1517 1518 1518 1518 1519 1519 1519 1522 1524 1525 1526 1527 1528 1529 1529 1532 1534 1536 1537 1539 1542 1544 1547 1549 1552 1554 1556 1558 1559 1561 1563 1564 1565 1566 1568 1569 1570 1571 1571 1571 1571 1571 1571 1570
1515 1517 1519 1519 1520 1520 1520 1521 1523 1525 1526 1526 1528 1528 1527 1529 1532 1534 1536 1537 1539 1542 1545 1547 1550 1552 1555 1557 1558 1560 1562 1564 1565 1566 1568 1569 1570 1571 1572 1572 1572 1572 1571 1571
1516 1518 1519 1519 1519 1519 1522 1520 1522 1523 1525 1526 1527 1530 1523 1523 1528 1531 1533 1535 1537 1540 1543 1545 1548 1551 1553 1555 1558 1560 1562 1563 1565 1566 1568 1569 1570 1572 1572 1572 1573 1572 1572 1572
1517 1518 1518 1519 1519 1519 1520 1521 1521 1522 1522 1525 1524 1526 1521 1520 1524 1525 1528 1532 1534 1537 1540 1543 1546 1548 1551 1554 1556 1559 1561 1563 1564 1566 1567 1569 1570 1571 1572 1572 1573 1573 1573 1573
1516 1518 1518 1518 1519 1520 1520 1522 1522 1521 1521 1528 1522 1524 1523 1516 1518 1520 1524 1528 1531 1534 1538 1541 1544 1546 1549 1552 1554 1557 1559 1561 1563 1565 1567 1568 1570 1571 1572 1573 1574 1574 1574 1574
1517 1517 1518 1518 1519 1520 1519 1521 1529 1529 1529 1525 1519 1522 1518 1511 1514 1517 1521 1525 1528 1531 1535 1538 1541 1544 1547 1549 1552 1555 1558 1560 1562 1564 1566 1568 1569 1571 1572 1573 1574 1574 1575 1575
1517 1519 1517 1517 1516 1517 1517 1518 1527 1533 1528 1522 1520 1521 1512 1512 1515 1517 1519 1522 1525 1528 1532 1535 1538 1541 1544 1547 1550 1553 1556 1559 1561 1563 1565 1567 1569 1570 1572 1572 1574 1574 1575 1575
1513 1516 1515 1516 1516 1516 1517 1518 1517 1520 1520 1523 1518 1513 1510 1511 1513 1516 1518 1520 1523 1526 1529 1532 1536 1538 1541 1545 1548 1551 1554 1557 1560 1562 1564 1566 1568 1569 1571 1572 1573 1574 1575 1575
1507 1514 1514 1516 1517 1517 1516 1517 1520 1522 1528 1527 1519 1514 1511 1510 1510 1513 1516 1518 1521 1524 1527 1530 1533 1536 1539 1543 1546 1549 1552 1555 1558 1561 1563 1565 1567 1569 1570 1572 1573 1574 1575 1575
1507 1511 1515 1515 1515 1514 1518 1519 1518 1518 1518 1523 1524 1517 1505 1506 1508 1510 1513 1516 1519 1522 1525 1528 1531 1534 1537 1540 1544 1547 1550 1553 1557 1559 1562 1564 1566 1568 1570 1571 1572 1573 1574 1575
1507 1507 1511 1511 1510 1511 1511 1512 1514 1520 1520 1517 1518 1516 1504 1506 1508 1510 1513 1515 1518 1520 1523 1526 1529 1532 1535 1538 1541 1545 1548 1552 1555 1558 1561 1563 1565 1567 1569 1570 1571 1573 1574 1575
1507 1507 1514 1516 1517 1514 1512 1511 1512 1512 1513 1515 1518 1515 1504 1506 1508 1510 1512 1514 1516 1519 1521 1524 1527 1529 1532 1535 1539 1543 1546 1550 1553 1556 1559 1562 1564 1566 1568 1569 1571 1572 1573 1574
1507 1504 1508 1514 1509 1507 1510 1511 1511 1511 1513 1512 1510 1508 1503 1505 1507 1510 1512 1513 1515 1517 1520 1522 1525 1527 1531 1534 1537 1541 1544 1547 1551 1554 1557 1560 1563 1565 1567 1568 1570 1571 1572 1574
1505 1503 1502 1502 1503 1504 1505 1507 1508 1508 1506 1508 1505 1505 1503 1504 1507 1509 1511 1512 1514 1516 1518 1521 1523 1526 1529 1532 1535 1538 1542 1545 1549 1552 1555 1558 1561 1563 1565 1567 1569 1570 1571 1573
1503 1503 1502 1503 1503 1503 1505 1503 1503 1504 1504 1504 1504 1504 1501 1504 1506 1508 1509 1511 1512 1514 1516 1519 1521 1524 1527 1530 1533 1536 1539 1543 1547 1550 1553 1556 1559 1561 1564 1566 1567 1569 1570 1572
1501 1502 1504 1504 1502 1504 1506 1499 1499 1501 1500 1501 1502 1500 1501 1503 1505 1507 1508 1509 1510 1512 1514 1516 1519 1522 1525 1528 1531 1534 1537 1541 1544 1548 1551 1554 1557 1559 1562 1564 1566 1567 1569 1570
1500 1501 1502 1503 1505 1514 1498 1494 1496 1498 1497 1497 1497 1499 1501 1503 1505 1506 1507 1507 1509 1510 1512 1514 1517 1520 1523 1526 1529 1532 1535 1538 1542 1545 1548 1551 1554 1557 1560 1562 1564 1566 1568 1569
1499 1500 1502 1504 1506 1502 1497 1495 1496 1497 1497 1495 1496 1498 1501 1502 1503 1504 1505 1505 1507 1508 1510 1512 1515 1517 1520 1523 1526 1530 1533 1536 1539 1542 1546 1549 1552 1555 1558 1560 1562 1564 1566 1567
1500 1499 1501 1503 1507 1506 1495 1493 1495 1497 1496 1494 1495 1497 1499 1500 1499 1501 1503 1503 1505 1506 1508 1510 1512 1515 1518 1521 1524 1527 1530 1533 1537 1540 1543 1546 1549 1552 1555 1558 1560 1562 1564 1565
1498 1499 1500 1500 1501 1494 1492 1494 1496 1499 1495 1494 1495 1496 1497 1498 1499 1501 1501 1502 1503 1504 1506 1508 1510 1513 1515 1518 1522 1525 1528 1531 1534 1537 1541 1544 1547 1550 1553 1555 1557 1559 1561 1563
1491 1494 1496 1497 1500 1498 1492 1493 1493 1492 1492 1494 1495 1496 1497 1498 1499 1500 1500 1501 1501 1502 1504 1506 1508 1511 1514 1517 1520 1523 1526 1529 1532 1535 1538 1541 1544 1547 1550 1552 1555 1557 1559 1560
1489 1488 1488 1491 1493 1491 1492 1493 1493 1493 1493 1494 1494 1495 1496 1497 1498 1499 1500 1500 1501 1501 1503 1505 1507 1509 1512 1515 1518 1521 1524 1527 1529 1532 1535 1538 1541 1544 1546 1549 1551 1554 1556 1557
1488 1490 1489 1489 1489 1491 1492 1492 1493 1493 1494 1494 1494 1495 1496 1496 1497 1498 1499 1499 1500 1501 1502 1504 1506 1508 1511 1514 1517 1520 1523 1525 1528 1531 1533 1536 1539 1541 1544 1546 1548 1551 1553 1554
1486 1488 1487 1487 1488 1490 1491 1491 1492 1492 1493 1493 1493 1494 1495 1495 1496 1497 1497 1498 1499 1500 1501 1503 1505 1507 1510 1513 1515 1518 1521 1524 1526 1529 1531 1534 1536 1539 1541 1543 1546 1548 1550 1551
1484 1484 1484 1483 1485 1486 1488 1489 1490 1491 1491 1492 1493 1493 1494 1495 1495 1496 1497 1497 1498 1499 1501 1503 1505 1507 1509 1511 1514 1517 1520 1522 1525 1527 1529 1532 1534 1536 1539 1541 1543 1545 1547 1549